Reflectivity
-20 -20 -20 -20 -20 -20 -20 -20 -20 -20 -20 -20 -20 -20 -20 -20 -20 -20 -20 -20 -20 -20 -20 -20 -20 -20 -20 -20 -20 -20 -20 -20 -20 -20 -20 -20 -20 -20 -20 -20 -20 -20 -20
-20 -20 -20 -20 -20 -20 -20 -20 -20 -20 -20 -20 -20 -20 -20 -20 -20 -20 -20 -20 -20 -20 -20 -20 -20 -20 -20 -20 -20 -20 -20 -20 -20 -20 -20 -20 -20 -20 -20 -20 -20 -20 -20
-20 -20 -20 -20 -20 -20 -20 -20 -20 -20 -20 -20 -20 -20 -20 -20 -20 -20 -20 -20 -20 -20 -20 -20 -20 -20 -20 -20 -20 -20 -20 -20 -20 -20 -20 -20 -20 -20 -20 -20 -20 -20 -20
-20 -20 -20 -20 -20 -20 -20 -20 -20 -20 -20 -20 -20 -20 -20 -20 -20 -20 -20 -20 -20 -20 -20 -20 -20 -20 -20 -20 -20 -20 -20 -20 -20 -20 -20 -20 -20 -20 -20 -20 -20 -20 -20
-20 -20 -20 -20 -20 -20 -20 -20 -20 -20 -20 -20 -20 -20 -20 -20 -20 -20 -20 -20 -20 -20 -20 -20 -20 -20 -20 -20 -20 -20 -20 -20 -20 -20 -20 -20 -20 -20 -20 -20 -20 -20 -20
-20 -20 -20 -20 -20 -20 -20 -20 -20 -20 -20 -20 -20 -20 -20 -20 -20 -20 -20 -20 -20 -20 -20 -20 -20 -20 -20 -20 -20 -20 -20 -20 -20 -20 -20 -20 -20 -20 -20 -20 -20 -20 -20
-20 -20 -20 -20 -20 -20 -20 -20 -20 -20 -20 -20 -20 -20 -20 -20 -20 -20 -20 -20 -20 -20 -20 -20 -20 -20 -20 -20 -20 -20 -20 -20 -20 -20 -20 -20 -20 -20 -3 -20 -20 -20 -20
-20 -20 -20 -20 -20 -20 -20 -20 -20 -20 -20 -20 -20 -20 -20 -20 -20 -20 -20 -20 -20 -20 -20 -20 -20 -20 -20 -20 -20 -20 -20 -20 -20 -20 -20 -20 -7 -11 -0 7 -8 -12 -20
-20 -20 -20 -20 -20 -20 -20 -20 -20 -20 -20 -20 -20 -20 -20 -20 -20 -20 -20 -20 -20 -20 -20 -20 -20 -20 -20 -20 -20 -20 -20 -20 -20 -20 -20 -20 -20 -20 -20 -20 -20 -20 -20
-20 -20 -20 -20 -20 -20 -20 -20 -20 -20 -20 -20 -20 -20 -20 -20 -20 -20 -20 -20 -20 -20 -20 -20 -20 -20 -20 -20 -19 -20 -1 -20 -20 -20 -20 -20 -20 -20 -20 -20 -20 -20 -15
-20 -20 -20 -20 -20 -20 -20 -20 -20 -20 -20 -20 -20 -20 -20 -20 -20 -20 -20 -20 -20 -20 -20 -20 -20 -20 -20 -9 8 -18 -8 -7 2 -20 -20 -20 -20 -20 -20 -20 -20 -20 -0
-20 -20 -20 -20 -20 -20 -20 -20 -20 -20 -20 -20 -20 -20 -20 -20 -20 -20 -20 -20 -20 -20 -20 -20 -20 -20 7 -0 -2 -8 -7 -6 -20 -20 -20 -20 -20 -20 -20 -20 -20 -20 -20
-20 -20 -20 -20 -20 -20 -20 -20 -20 -20 -20 -20 -20 -20 -20 -20 -20 -20 -20 -20 -20 -20 -20 -20 2 5 2 -18 -20 -20 -20 -20 -20 -20 -20 -20 -20 -20 -20 -20 -20 -20 -20
-20 -20 -20 -20 -20 -20 -20 -20 -20 -20 -20 -20 -20 -20 -20 -20 -20 -20 -20 -20 -20 -20 -20 -20 -20 1 -20 -20 -20 -20 -20 -20 -20 -20 -20 -20 -20 -20 -20 -20 -20 -20 -20
-16 -20 -20 -20 -20 -20 -20 -20 -20 -20 -20 -20 -20 -20 -20 -20 -20 -10 2 -10 -11 -12 5 -20 -20 -20 -20 -20 -20 -20 -20 -20 -20 -20 -20 -20 -20 -20 -20 -20 -20 -20 -11
-20 -20 -20 -20 -20 -20 -20 -20 -20 -20 -20 -20 -20 -14 -20 0 -14 -1 0 0 3 3 10 -20 -20 -20 -20 -20 -20 -20 -20 -20 -20 -20 -20 -20 -20 -20 -20 -20 -20 -20 -20
-18 -10 -7 -16 -20 -20 -20 -20 -20 -20 -20 -20 -20 -20 -20 -19 -2 0 2 3 12 6 -20 -20 -20 -20 -20 -20 -20 -20 -20 -20 -20 -20 -20 -20 -20 -20 -19 -20 -20 -20 -20
-13 -18 -15 -16 -20 -20 -20 -20 -20 -20 -20 -20 -20 -20 -20 -20 -20 -4 2 2 -20 -20 -20 -20 -20 -20 -16 -7 -17 -17 -6 5 -18 -19 -20 -20 -20 -20 -20 -20 -20 -20 -20
-17 -20 -20 -20 -20 -20 -20 -20 -20 -20 -20 -20 -20 -20 -20 -20 -20 -15 -4 -20 -20 -20 -12 -20 -13 -20 -2 -20 -20 -20 2 1 -4 -8 -13 -20 -20 -20 -20 -20 -20 -20 -1
-20 -20 -20 -20 -20 -20 -20 -20 -20 -20 -20 -20 -20 -20 -20 -20 -20 -20 -20 -20 -20 -20 -20 -5 -16 -5 -20 -20 -20 -18 -20 -17 -14 -20 -20 -20 -20 -20 -20 -20 -20 -20 -20
-20 -20 -20 -20 -20 -20 -20 -20 -20 -20 -20 -20 -20 -20 -3 2 -20 -20 -20 -20 -20 -20 -20 -20 -20 -19 -20 -20 -20 -20 -20 -20 -20 -20 -20 -20 -20 -20 -20 -20 -20 -20 -20
-20 -20 -20 -20 -20 -20 -20 -20 -20 -20 -20 -20 -20 -20 -20 -20 -20 -20 -20 -20 -20 -20 -20 -20 -20 -20 -20 -20 -20 -20 -20 -20 -20 -20 -20 -20 -20 -20 -20 -20 -20 -20 -20
-20 -20 -20 -20 -20 -20 -20 -20 -20 -20 -20 -20 -20 -20 -20 -20 -20 -20 -20 -20 -20 -20 -20 -20 -20 -20 -20 -20 -20 -20 -20 -20 -20 -20 -14 -20 -20 -20 -20 -20 -20 -18 -20
-20 -20 -20 -20 -20 -20 -20 -20 -20 -20 -20 -20 -20 -20 -20 -20 -20 -20 -20 -20 -20 -20 -20 -20 -20 -20 -20 -20 -20 -20 -20 -20 -20 -20 -16 -11 -14 -20 -20 -20 -20 -20 -20
-20 -20 -20 -20 -20 -20 -6 -20 -20 -20 -20 -20 -20 -20 -20 -20 -20 -20 -20 -20 -20 -20 -20 -20 -20 -20 -20 -20 -20 -20 -20 -20 13 13 3 -1 -20 -20 -20 -20 -20 -20 -20
-17 -20 -20 -20 -20 -9 -17 -20 -20 -20 -20 -20 -20 -20 -20 -20 -20 -20 -20 -20 -20 -20 -20 -20 -20 -20 -20 -20 -20 -20 7 8 12 11 4 -20 -20 -20 -20 -20 -20 -20 -20
Wind_Speed
7 6 7 6 7 7 7 6 6 6 6 7 6 7 7 6 6 6 6 6 6 5 5 5 5 4 3 3 2 1 1 3 4 5 3 2 3 4 5 4 5 5 5
8 9 9 9 9 9 8 7 6 8 7 7 7 8 7 7 6 7 6 5 6 6 5 5 5 4 4 4 3 4 3 2 3 5 3 4 4 5 4 5 5 4 4
10 11 10 9 10 9 9 8 8 8 7 7 8 7 6 6 6 6 6 5 5 4 4 4 4 4 4 3 3 4 3 3 2 3 7 3 4 4 7 4 5 5 3
11 11 11 9 9 9 8 8 8 6 7 7 6 6 6 6 6 5 5 4 4 3 3 3 4 3 4 5 4 4 3 4 3 3 3 3 3 5 3 4 5 3 7
12 12 10 9 9 8 8 7 7 7 7 6 6 6 6 5 3 4 4 3 3 4 4 4 4 6 10 8 4 4 4 3 3 4 4 2 3 3 4 3 5 5 5
11 11 9 9 8 7 7 7 7 7 7 6 6 6 6 3 8 9 6 3 4 4 5 6 5 9 7 11 13 14 10 4 4 3 5 5 7 5 3 4 5 5 6
11 9 9 8 8 7 7 7 7 6 5 6 6 6 5 5 9 10 10 3 4 4 4 5 5 4 8 5 11 13 11 12 11 6 6 5 6 4 5 7 6 5 7
10 9 7 8 8 7 7 7 6 4 5 4 4 4 4 3 9 10 10 4 3 4 4 5 5 6 7 9 6 6 6 6 7 4 6 7 7 7 6 6 7 7 6
9 8 7 7 7 7 7 6 4 4 3 3 2 4 5 5 10 10 8 4 4 5 5 6 6 6 13 17 8 6 6 7 9 14 15 16 17 18 15 7 7 6 9
7 7 7 7 7 7 6 5 3 3 3 3 4 3 5 4 8 9 8 2 4 4 5 5 11 10 15 16 8 5 5 6 7 7 7 9 10 9 16 6 6 9 9
7 7 7 6 7 6 5 3 3 3 3 3 3 4 4 3 5 11 12 4 4 4 3 4 4 15 17 17 17 5 6 9 8 5 5 5 5 5 5 5 5 5 7
7 7 6 6 5 5 5 3 3 3 2 3 3 4 3 4 8 9 13 13 11 3 4 4 6 15 17 18 13 16 18 15 4 4 4 5 5 5 6 5 6 6 6
7 6 6 5 5 4 4 3 2 1 1 3 2 2 4 3 4 12 13 14 13 7 3 9 18 17 16 10 13 16 15 4 4 4 5 6 4 6 6 5 5 7 7
7 6 4 5 5 3 2 1 0 1 2 2 2 3 4 3 4 4 5 6 11 8 10 8 10 11 12 11 8 6 4 4 3 4 6 5 5 3 4 3 4 7 7
6 5 4 3 3 2 1 2 2 3 4 3 3 3 3 4 5 11 11 5 5 7 13 2 3 3 4 4 4 4 4 4 4 4 4 6 7 6 6 3 6 4 6
5 3 2 2 1 0 1 3 6 6 8 10 11 7 4 10 14 16 17 18 18 19 5 3 4 5 5 5 5 6 5 8 5 5 5 6 7 8 7 6 3 4 6
3 3 2 2 0 1 1 2 3 5 9 8 8 9 12 13 14 15 16 17 13 11 3 4 5 5 5 5 7 8 8 8 8 6 6 6 7 8 9 5 5 8 8
3 3 2 1 2 2 3 3 2 3 4 4 6 9 12 13 13 14 14 11 5 6 3 6 7 7 7 6 7 7 7 7 8 9 8 7 7 8 8 5 6 7 7
3 1 1 2 2 3 2 2 2 3 4 4 4 6 8 12 13 12 11 3 5 5 5 7 6 7 7 6 7 7 7 7 8 6 6 7 7 6 7 7 7 14 14
0 4 4 2 2 2 2 2 3 3 4 3 3 5 4 5 3 4 4 4 4 6 6 6 6 6 6 7 7 7 6 7 7 7 8 7 7 7 7 8 7 7 6
2 2 5 1 2 3 3 3 3 3 4 3 4 5 13 7 2 3 4 4 5 5 6 6 6 7 6 7 6 6 6 7 7 7 7 7 7 7 8 7 7 7 7
2 3 3 3 3 3 3 3 2 3 3 3 5 6 13 4 3 4 6 6 6 6 5 6 5 6 6 6 6 6 7 7 7 7 8 8 8 8 8 8 8 7 6
3 4 3 3 3 5 2 2 2 2 3 4 4 5 4 4 4 5 6 6 6 6 5 5 6 6 5 6 6 6 7 7 8 8 8 9 8 8 7 8 8 7 6
4 3 3 4 3 3 2 2 2 5 5 4 4 4 4 4 4 5 5 5 5 5 5 5 5 7 7 6 6 6 7 7 7 9 12 9 8 8 7 8 8 8 8
3 3 3 3 3 3 2 2 3 3 3 4 4 4 4 4 4 5 5 4 4 5 5 4 4 6 8 9 9 9 12 20 14 12 7 4 6 9 8 7 8 8 7
3 4 4 2 3 2 2 2 3 3 3 4 4 4 5 4 4 4 4 4 4 4 5 4 5 8 9 8 9 14 19 20 14 17 4 2 4 6 6 7 10 7 6
Wind_Direction
119 118 116 110 103 97 94 93 92 88 85 82 84 81 74 66 55 66 65 51 60 49 38 39 24 8 359 354 349 314 261 188 238 292 285 276 268 269 290 287 293 294 295
111 108 104 102 96 94 93 91 88 87 74 81 78 77 73 68 61 64 64 54 54 42 24 31 19 0 2 353 350 331 290 240 230 274 279 308 309 316 274 288 291 279 289
110 108 99 96 98 97 94 88 83 87 79 73 76 75 74 70 67 63 68 60 54 49 33 25 356 357 342 332 324 316 303 309 276 261 300 292 298 307 313 311 304 299 293
104 103 102 99 100 97 93 87 88 87 88 79 73 75 69 70 66 60 57 45 26 10 352 337 317 314 303 303 294 291 291 300 287 283 268 265 267 287 283 288 308 299 305
103 102 102 99 95 94 91 89 86 79 78 77 74 61 51 54 36 46 43 26 360 338 331 319 299 298 303 302 301 298 296 277 285 290 293 281 279 289 275 277 294 287 291
106 107 105 101 98 96 93 89 82 76 71 69 60 59 47 23 15 10 12 9 351 345 327 322 319 313 314 317 312 306 296 304 298 277 299 288 286 270 279 282 291 299 304
110 110 107 104 97 92 92 86 80 75 73 64 56 46 29 2 6 1 352 17 344 335 327 323 324 317 319 293 305 309 301 294 293 297 289 282 289 274 287 298 286 280 283
109 105 104 103 100 95 88 84 79 69 64 58 43 28 17 345 353 351 348 18 4 338 323 313 308 309 310 314 288 286 277 273 277 269 249 262 259 266 260 274 279 282 276
111 109 108 105 100 95 86 85 77 68 58 45 26 14 2 334 344 343 346 354 334 318 305 308 297 299 308 313 305 291 285 286 289 295 298 301 301 304 308 310 296 291 292
119 117 112 108 106 100 99 88 69 65 54 27 353 357 332 331 330 338 337 329 310 294 295 296 305 310 313 314 307 296 290 272 280 291 299 299 296 291 304 288 282 288 289
117 111 103 102 102 103 98 86 83 71 37 12 346 328 322 314 314 326 325 309 277 280 278 282 276 308 313 311 311 294 269 289 286 278 267 274 283 281 275 262 258 257 281
110 105 103 100 95 105 103 92 78 74 31 347 330 317 314 310 319 321 317 315 312 302 293 283 282 298 309 315 316 310 312 323 328 305 296 291 287 286 282 272 270 267 256
103 103 102 107 103 91 93 82 63 32 5 309 291 299 300 296 299 311 315 315 314 310 273 284 305 310 306 310 310 310 321 317 300 299 292 287 257 271 287 283 282 266 257
109 113 115 96 98 84 84 103 46 304 295 281 292 283 285 298 296 292 288 290 294 295 289 285 291 308 313 304 309 298 286 273 258 263 284 279 281 284 279 265 287 305 304
113 98 89 95 89 86 29 245 230 253 229 248 248 256 281 278 272 289 304 292 285 289 307 334 316 301 292 290 285 271 270 272 282 275 282 292 298 293 283 259 281 270 268
98 111 133 128 108 78 323 319 312 300 309 312 309 302 282 302 311 308 313 310 305 304 323 295 299 292 287 289 290 297 300 305 288 283 281 286 295 296 294 289 273 291 292
124 141 148 130 208 293 315 281 299 310 319 319 314 312 317 307 307 311 309 304 321 328 311 300 298 297 294 299 307 307 303 298 292 286 283 283 285 287 293 284 278 296 290
150 166 143 198 239 251 245 261 281 304 312 310 307 310 310 311 315 310 307 324 324 321 286 295 296 296 294 291 293 294 290 294 295 294 286 285 290 285 284 276 275 277 279
143 159 239 259 248 248 258 287 287 280 265 266 288 305 316 316 315 317 324 313 292 293 293 299 298 292 291 291 289 286 287 292 290 297 290 287 284 279 279 275 270 284 286
162 279 270 222 258 277 281 274 267 264 273 272 284 294 307 318 293 287 291 286 285 296 298 290 292 293 293 293 286 283 286 288 292 292 290 281 275 269 271 272 269 272 268
269 274 269 259 259 267 259 251 258 259 279 281 286 296 305 312 296 292 298 297 291 286 283 285 287 296 293 286 284 284 283 283 280 280 278 277 273 270 265 262 263 264 267
248 250 251 244 259 252 248 239 237 259 276 287 292 293 309 312 282 289 301 300 292 286 282 281 282 296 285 286 287 286 283 283 283 278 277 276 273 269 267 266 263 257 254
238 244 243 253 242 271 308 284 276 279 277 271 274 287 291 282 273 276 295 290 288 286 285 279 279 285 284 282 281 279 281 280 279 280 279 279 277 272 270 269 265 259 247
235 223 236 251 247 238 215 253 261 292 295 277 275 279 277 275 273 278 282 283 286 285 281 289 286 286 293 289 281 278 277 275 275 272 271 267 271 289 282 280 274 262 252
224 233 244 238 222 246 275 263 260 267 272 276 282 281 283 281 280 278 278 278 280 287 287 286 278 280 284 291 291 291 289 295 299 306 299 296 306 296 289 290 288 279 252
217 226 229 213 237 241 243 252 269 275 284 284 283 280 282 285 277 284 289 291 291 291 299 290 296 305 305 299 295 304 314 318 320 322 322 285 294 299 290 283 282 284 258